Вернуться в каталог

KUIPER-00126

АктивенСвязьLEO
NORAD 65955·PAYLOAD·🇺🇸 United States

Запущен Oct 14, 2025 с Cape Canaveral Space Force Station

Loading…

Ближайшие Пролёты (ближайшие 24 часа)

TLE

СвежийSource: CelesTrak SupGP

Эпоха: Sep 14, 2026, 13:00 UTC

1 65955C 25228J   26257.54230324  .00003461  00000+0  45305-3 0  2574
2 65955  51.8975 245.4787 0000643  68.5445 290.3045 14.79925766    19

Отслеживайте KUIPER-00126 в реальном времени с AllMySat

Download on the App Store